| time (UTC) | temp C | wind direction | speed KPH | gust KPH | rain 1hr cm | rain 24hr cm | rain mn cm | humidity % | barometer mb |
| 20260906193057 | 26 | 198 | 3.2 | 9.7 | 0.00 | 0.00 | 0.00 | 79 | 1015.7 |
| 20260906191653 | 26 | 272 | 6.4 | 14.5 | 0.00 | 0.00 | 0.00 | 79 | 1015.2 |
| 20260906190057 | 26 | 232 | 9.7 | 17.7 | 0.00 | 0.00 | 0.00 | 79 | 1015.1 |
| 20260906184653 | 26 | 262 | 8.0 | 17.7 | 0.00 | 0.00 | 0.00 | 79 | 1014.9 |
| 20260906183058 | 26 | 280 | 6.4 | 14.5 | 0.00 | 0.00 | 0.00 | 78 | 1014.7 |
| 20260906181552 | 26 | 227 | 4.8 | 17.7 | 0.00 | 0.00 | 0.00 | 79 | 1015.1 |
| 20260906180049 | 26 | 236 | 8.0 | 17.7 | 0.00 | 0.00 | 0.00 | 80 | 1015.1 |
| 20260906174604 | 26 | 265 | 4.8 | 11.3 | 0.00 | 0.00 | 0.00 | 80 | 1014.7 |
| 20260906173046 | 26 | 300 | 4.8 | 8.0 | 0.00 | 0.00 | 0.00 | 82 | 1014.9 |
| 20260906171545 | 26 | 254 | 4.8 | 16.1 | 0.00 | 0.00 | 0.00 | 84 | 1015.0 |
| 20260906170044 | 26 | 260 | 9.7 | 16.1 | 0.00 | 0.00 | 0.00 | 85 | 1014.8 |
| 20260906164541 | 26 | 244 | 6.4 | 16.1 | 0.00 | 0.00 | 0.00 | 89 | 1014.7 |
| 20260906163047 | 26 | 226 | 8.0 | 12.9 | 0.00 | 0.00 | 0.00 | 91 | 1014.8 |
| 20260906161536 | 25 | 200 | 4.8 | 12.9 | 0.00 | 0.00 | 0.00 | 92 | 1014.9 |
| 20260906160032 | 25 | 197 | 6.4 | 16.1 | 0.00 | 0.00 | 0.00 | 92 | 1014.8 |
| 20260906154531 | 25 | 183 | 11.3 | 19.3 | 0.00 | 0.00 | 0.00 | 92 | 1014.7 |
| 20260906153029 | 25 | 179 | 8.0 | 19.3 | 0.00 | 0.00 | 0.00 | 92 | 1014.3 |
| 20260906151528 | 25 | 168 | 9.7 | 19.3 | 0.00 | 0.00 | 0.00 | 93 | 1014.5 |
| 20260906150029 | 25 | 123 | 6.4 | 20.9 | 0.00 | 0.00 | 0.00 | 93 | 1014.5 |
| 20260906144528 | 24 | 142 | 9.7 | 22.5 | 0.00 | 0.00 | 0.00 | 94 | 1014.6 |
| 20260906143024 | 24 | 131 | 12.9 | 24.1 | 0.00 | 0.00 | 0.00 | 95 | 1014.4 |
| 20260906141522 | 24 | 128 | 11.3 | 19.3 | 0.00 | 0.00 | 0.00 | 96 | 1014.3 |
| 20260906140020 | 23 | 121 | 9.7 | 17.7 | 0.00 | 0.00 | 0.00 | 97 | 1014.1 |
| 20260906134637 | 23 | 125 | 9.7 | 17.7 | 0.00 | 0.00 | 0.00 | 97 | 1014.3 |
| 20260906133016 | 23 | 120 | 9.7 | 17.7 | 0.00 | 0.00 | 0.00 | 98 | 1014.4 |
| 20260906131514 | 23 | 128 | 9.7 | 19.3 | 0.00 | 0.00 | 0.00 | 98 | 1014.2 |
| 20260906130016 | 23 | 133 | 8.0 | 16.1 | 0.00 | 0.00 | 0.00 | 98 | 1014.2 |
| 20260906124510 | 23 | 151 | 8.0 | 16.1 | 0.00 | 0.00 | 0.00 | 98 | 1014.1 |
| 20260906123027 | 23 | 121 | 6.4 | 12.9 | 0.00 | 0.00 | 0.00 | 98 | 1014.0 |
| 20260906121509 | 23 | 134 | 6.4 | 14.5 | 0.00 | 0.00 | 0.00 | 98 | 1013.9 |
| 20260906120008 | 23 | 127 | 6.4 | 14.5 | 0.00 | 0.00 | 0.00 | 98 | 1013.8 |
| 20260906114508 | 23 | 132 | 4.8 | 14.5 | 0.00 | 0.00 | 0.00 | 98 | 1013.6 |
| 20260906113011 | 23 | 113 | 4.8 | 16.1 | 0.00 | 0.00 | 0.00 | 98 | 1013.4 |
| 20260906111506 | 23 | 149 | 6.4 | 16.1 | 0.00 | 0.00 | 0.00 | 98 | 1013.3 |
| 20260906110006 | 23 | 109 | 8.0 | 14.5 | 0.00 | 0.00 | 0.00 | 98 | 1013.4 |
| 20260906104505 | 23 | 134 | 8.0 | 17.7 | 0.00 | 0.00 | 0.00 | 98 | 1013.2 |
| 20260906103005 | 22 | 146 | 9.7 | 17.7 | 0.00 | 0.00 | 0.00 | 98 | 1013.3 |
| 20260906101502 | 22 | 134 | 11.3 | 19.3 | 0.00 | 0.00 | 0.00 | 98 | 1013.3 |
| 20260906100058 | 22 | 153 | 12.9 | 19.3 | 0.00 | 0.00 | 0.00 | 97 | 1013.3 |
| 20260906094559 | 22 | 138 | 11.3 | 24.1 | 0.00 | 0.00 | 0.00 | 97 | 1013.3 |
| 20260906093103 | 22 | 155 | 11.3 | 20.9 | 0.00 | 0.00 | 0.00 | 97 | 1013.4 |
| 20260906091553 | 22 | 144 | 9.7 | 19.3 | 0.00 | 0.00 | 0.00 | 97 | 1013.8 |
| 20260906084556 | 22 | 146 | 4.8 | 11.3 | 0.00 | 0.00 | 0.00 | 97 | 1013.8 |
| 20260906083049 | 21 | 138 | 6.4 | 12.9 | 0.00 | 0.00 | 0.00 | 97 | 1013.4 |
| 20260906081553 | 21 | 138 | 4.8 | 12.9 | 0.00 | 0.00 | 0.00 | 96 | 1013.4 |
| 20260906080051 | 21 | 137 | 8.0 | 16.1 | 0.00 | 0.00 | 0.00 | 96 | 1013.3 |
| 20260906074546 | 21 | 122 | 8.0 | 16.1 | 0.00 | 0.00 | 0.00 | 96 | 1013.3 |
| 20260906073054 | 21 | 123 | 8.0 | 14.5 | 0.00 | 0.00 | 0.00 | 96 | 1013.2 |
| 20260906071542 | 21 | 115 | 9.7 | 16.1 | 0.00 | 0.00 | 0.00 | 96 | 1013.3 |
| 20260906070051 | 21 | 123 | 8.0 | 16.1 | 0.00 | 0.00 | 0.00 | 96 | 1013.1 |
| 20260906064539 | 21 | 130 | 9.7 | 14.5 | 0.00 | 0.00 | 0.00 | 95 | 1013.3 |
| 20260906063039 | 21 | 117 | 8.0 | 14.5 | 0.00 | 0.00 | 0.00 | 95 | 1013.3 |
| 20260906061538 | 21 | 128 | 9.7 | 16.1 | 0.00 | 0.00 | 0.00 | 94 | 1013.2 |
| 20260906060034 | 21 | 108 | 4.8 | 11.3 | 0.00 | 0.00 | 0.00 | 94 | 1013.4 |
| 20260906054533 | 21 | 123 | 6.4 | 12.9 | 0.00 | 0.00 | 0.00 | 93 | 1013.3 |
| 20260906053037 | 21 | 132 | 4.8 | 11.3 | 0.00 | 0.00 | 0.00 | 92 | 1013.5 |
| 20260906051528 | 21 | 134 | 6.4 | 11.3 | 0.00 | 0.00 | 0.00 | 92 | 1013.6 |
| 20260906050026 | 21 | 136 | 3.2 | 11.3 | 0.00 | 0.00 | 0.00 | 91 | 1014.1 |
| 20260906044525 | 21 | 121 | 4.8 | 11.3 | 0.00 | 0.00 | 0.00 | 91 | 1013.9 |
| 20260906043038 | 21 | 126 | 4.8 | 11.3 | 0.00 | 0.00 | 0.00 | 90 | 1014.0 |
| 20260906041524 | 21 | 114 | 6.4 | 12.9 | 0.00 | 0.00 | 0.00 | 89 | 1013.8 |
| 20260906040025 | 22 | 137 | 6.4 | 12.9 | 0.00 | 0.00 | 0.00 | 88 | 1013.7 |
| 20260906034526 | 22 | 138 | 6.4 | 12.9 | 0.00 | 0.00 | 0.00 | 88 | 1013.7 |
| 20260906033024 | 22 | 136 | 8.0 | 16.1 | 0.00 | 0.00 | 0.00 | 88 | 1013.6 |
| 20260906031521 | 21 | 142 | 6.4 | 12.9 | 0.00 | 0.00 | 0.00 | 87 | 1013.4 |
| 20260906030022 | 22 | 139 | 6.4 | 12.9 | 0.00 | 0.00 | 0.00 | 87 | 1013.4 |
| 20260906024521 | 22 | 133 | 6.4 | 14.5 | 0.00 | 0.00 | 0.00 | 86 | 1013.4 |
| 20260906023021 | 22 | 142 | 4.8 | 9.7 | 0.00 | 0.00 | 0.00 | 85 | 1013.3 |
| 20260906021519 | 22 | 138 | 3.2 | 8.0 | 0.00 | 0.00 | 0.00 | 84 | 1013.3 |
| 20260906020019 | 23 | 132 | 6.4 | 11.3 | 0.00 | 0.00 | 0.00 | 83 | 1013.0 |
| 20260906014526 | 23 | 138 | 6.4 | 11.3 | 0.00 | 0.00 | 0.00 | 82 | 1012.9 |
| 20260906013019 | 24 | 142 | 3.2 | 6.4 | 0.00 | 0.00 | 0.00 | 80 | 1012.8 |
| 20260906011518 | 25 | 142 | 3.2 | 8.0 | 0.00 | 0.00 | 0.00 | 78 | 1012.7 |
| 20260906010017 | 26 | 143 | 3.2 | 6.4 | 0.00 | 0.00 | 0.00 | 75 | 1012.7 |
| 20260906004517 | 27 | 144 | 3.2 | 4.8 | 0.00 | 0.00 | 0.00 | 72 | 1012.6 |
| 20260906003017 | 29 | 144 | 1.6 | 6.4 | 0.00 | 0.00 | 0.00 | 66 | 1012.5 |
| 20260906001516 | 30 | 159 | 4.8 | 8.0 | 0.00 | 0.00 | 0.00 | 64 | 1012.5 |
| 20260906000015 | 30 | 159 | 4.8 | 11.3 | 0.00 | 0.00 | 0.00 | 62 | 1012.2 |
| 20260905234514 | 31 | 155 | 3.2 | 14.5 | 0.00 | 0.00 | 0.00 | 62 | 1012.0 |
| 20260905233013 | 31 | 189 | 8.0 | 16.1 | 0.00 | 0.00 | 0.00 | 61 | 1011.9 |
| 20260905231515 | 31 | 170 | 6.4 | 16.1 | 0.00 | 0.00 | 0.00 | 59 | 1011.7 |
| 20260905230014 | 31 | 188 | 8.0 | 17.7 | 0.00 | 0.00 | 0.00 | 58 | 1011.8 |
| 20260905224511 | 31 | 180 | 6.4 | 14.5 | 0.00 | 0.00 | 0.00 | 59 | 1011.8 |
| 20260905223010 | 31 | 137 | 11.3 | 22.5 | 0.00 | 0.00 | 0.00 | 56 | 1011.9 |
| 20260905221514 | 31 | 175 | 9.7 | 22.5 | 0.00 | 0.00 | 0.00 | 55 | 1012.0 |
| 20260905220009 | 31 | 158 | 11.3 | 20.9 | 0.00 | 0.00 | 0.00 | 54 | 1012.0 |
| 20260905214508 | 31 | 167 | 11.3 | 25.7 | 0.00 | 0.00 | 0.00 | 56 | 1011.9 |
| 20260905213006 | 31 | 144 | 11.3 | 19.3 | 0.00 | 0.00 | 0.00 | 59 | 1011.8 |
| 20260905211505 | 31 | 111 | 9.7 | 17.7 | 0.00 | 0.00 | 0.00 | 59 | 1011.9 |
| 20260905210005 | 31 | 142 | 9.7 | 19.3 | 0.00 | 0.00 | 0.00 | 59 | 1012.0 |
| 20260905204504 | 31 | 104 | 9.7 | 16.1 | 0.00 | 0.00 | 0.00 | 61 | 1012.0 |
| 20260905203004 | 31 | 92 | 11.3 | 19.3 | 0.00 | 0.00 | 0.00 | 58 | 1011.9 |
| 20260905201503 | 31 | 114 | 9.7 | 17.7 | 0.00 | 0.00 | 0.00 | 58 | 1011.9 |
| 20260905200001 | 31 | 167 | 6.4 | 17.7 | 0.00 | 0.00 | 0.00 | 60 | 1012.0 |
| 20260905194559 | 30 | 142 | 11.3 | 19.3 | 0.00 | 0.00 | 0.00 | 58 | 1012.0 |